Regional Weather Roundup
Issued by NWS

Current Version | Previous Version | Text Only | Print | Product List | Glossary On
Versions: 1 2 3 4 5 6 7 8 9 10 11 12 13 14 15 16 17 18 19 20 21 22 23 24 25 26 27 28 29 30 31 32 33 34 35 36 37 38 39 40 41 42 43 44 45 46 47 48 49 50
000
ASUS43 KLMK 200610
RWRKY
KENTUCKY REGIONAL WEATHER ROUNDUP
NATIONAL WEATHER SERVICE LOUISVILLE KY
100 AM EST FRI JAN 20 2017

NOTE "FAIR" INDICATES FEW OR NO CLOUDS BELOW 12,000 FEET
WITH NO SIGNIFICANT WEATHER AND/OR OBSTRUCTIONS TO VISIBILITY.

KYZ001>023-026-027-061>063-070>075-200700-
WESTERN AND SOUTH CENTRAL KENTUCKY

CITY           SKY/WX    TMP DP  RH WIND       PRES   REMARKS
PADUCAH        CLOUDY    58  54  86 SW7       29.64F
HENDERSON      CLOUDY    54  52  94 S7        29.63F
OWENSBORO      LGT RAIN  54  54 100 SW6       29.64F FOG
HOPKINSVILLE   DRIZZLE   55  55 100 SW7       29.66F
BOWLING GREEN  LGT RAIN  58  56  93 SW9       29.65F
GLASGOW        LGT RAIN N/A N/A N/A SW7       29.65F
$$

KYZ024-025-028>034-038-045-046-053-200700-
NORTH CENTRAL KENTUCKY

CITY           SKY/WX    TMP DP  RH WIND       PRES   REMARKS
LOUISVILLE/SDF LGT RAIN  55  53  93 S3        29.61F FOG
LOUISVILLE/LOU LGT RAIN  55  53  93 SW6       29.62F FOG
FORT KNOX      LGT RAIN  52  52 100 CALM      29.60F FOG
$$

KYZ035>037-039>044-047>052-055>060-089>105-200700-
NORTHEAST KENTUCKY

CITY           SKY/WX    TMP DP  RH WIND       PRES   REMARKS
LEXINGTON      LGT RAIN  53  51  93 SE10      29.65F
COVINGTON      LGT RAIN  47  46  97 SE13      29.66F FOG
FRANKFORT      LGT RAIN  54  50  86 SE10      29.63F FOG
$$

KYZ054-064>069-076>088-106>120-200700-
SOUTHEAST KENTUCKY

CITY           SKY/WX    TMP DP  RH WIND       PRES   REMARKS
JACKSON        CLOUDY    49  44  83 E7        29.72F
LONDON         LGT RAIN  51  47  86 CALM      29.71F
SOMERSET       DRIZZLE   50  50 100 CALM      29.70F
MIDDLESBORO    RAIN      53  48  83 W3        29.78F
MONTICELLO     LGT RAIN  56  53  90 SE12G17   29.69F
$$





USA.gov is the U.S. government's official web portal to all federal, state and local government web resources and services.